TimeEDT,TemperatureF,Dew PointF,Humidity,Sea Level PressureIn,VisibilityMPH,Wind Direction,Wind SpeedMPH,Gust SpeedMPH,PrecipitationIn,Events,Conditions,WindDirDegrees,DateUTC
12:55 AM,41.7,29.1,61,30.08,10.0,NW,3.5,-,N/A,,Overcast,310,2013-03-30 04:55:00
1:55 AM,40.8,28.4,61,30.08,10.0,NNW,5.8,-,N/A,,Mostly Cloudy,340,2013-03-30 05:55:00
2:55 AM,39.7,28.2,63,30.08,10.0,NNW,6.9,-,N/A,,Mostly Cloudy,330,2013-03-30 06:55:00
3:55 AM,34.9,28.8,78,30.08,10.0,Calm,Calm,-,N/A,,Mostly Cloudy,0,2013-03-30 07:55:00
4:55 AM,32.9,27.9,82,30.08,10.0,Calm,Calm,-,N/A,,Partly Cloudy,0,2013-03-30 08:55:00
5:55 AM,29.8,27.5,91,30.09,10.0,Calm,Calm,-,N/A,,Mostly Cloudy,0,2013-03-30 09:55:00
6:55 AM,26.1,25.5,98,30.10,10.0,Calm,Calm,-,N/A,,Clear,0,2013-03-30 10:55:00
7:55 AM,34.2,31.3,89,30.11,10.0,Calm,Calm,-,N/A,,Clear,0,2013-03-30 11:55:00
8:55 AM,41.2,29.7,64,30.12,10.0,Calm,Calm,-,N/A,,Clear,0,2013-03-30 12:55:00
9:55 AM,46.9,28.4,49,30.12,10.0,WNW,6.9,-,N/A,,Clear,300,2013-03-30 13:55:00
10:55 AM,50.2,22.8,34,30.10,10.0,Variable,4.6,-,N/A,,Clear,0,2013-03-30 14:55:00
11:55 AM,51.6,19.6,28,30.08,10.0,Variable,6.9,-,N/A,,Scattered Clouds,0,2013-03-30 15:55:00
12:55 PM,53.8,15.3,22,30.07,10.0,North,11.5,18.4,N/A,,Clear,360,2013-03-30 16:55:00
1:55 PM,55.9,16.2,21,30.05,10.0,WNW,11.5,20.7,N/A,,Clear,290,2013-03-30 17:55:00
2:55 PM,55.4,15.3,21,30.04,10.0,NW,9.2,23.0,N/A,,Clear,320,2013-03-30 18:55:00
3:55 PM,55.0,15.4,21,30.03,10.0,North,11.5,16.1,N/A,,Clear,360,2013-03-30 19:55:00
4:55 PM,56.1,15.8,21,30.03,10.0,WNW,15.0,-,N/A,,Scattered Clouds,290,2013-03-30 20:55:00
5:55 PM,55.0,16.9,22,30.04,10.0,West,12.7,-,N/A,,Partly Cloudy,280,2013-03-30 21:55:00
6:55 PM,51.8,18.5,27,30.06,10.0,NW,8.1,-,N/A,,Clear,310,2013-03-30 22:55:00
7:55 PM,46.8,19.9,35,30.07,10.0,West,5.8,-,N/A,,Clear,270,2013-03-30 23:55:00
8:55 PM,44.8,20.3,38,30.09,10.0,WNW,6.9,-,N/A,,Clear,290,2013-03-31 00:55:00
9:55 PM,43.5,19.8,39,30.10,10.0,NW,6.9,-,N/A,,Clear,310,2013-03-31 01:55:00
10:55 PM,41.0,19.9,43,30.10,10.0,NE,3.5,-,N/A,,Clear,40,2013-03-31 02:55:00
11:55 PM,34.7,23.2,63,30.12,10.0,Calm,Calm,-,N/A,,Clear,0,2013-03-31 03:55:00